When you browse on this site, cookies collect data to enhance your experience and personalize the content and advertising you see.
Visit our Privacy Policy to learn more. By continuing to use the site, you agree to this use of cookies and data.
  • Em Portugal
  • Lista de países
  • Para 7 dias
  • Temperatura da água
  • Mapas de satélite
  • Mapa do tempo
  • Widgets de tempo
  • user-avatar
    Iniciar Sessão

    Previsão horária em Kemer

    Hoje, 16 Janeiro, Quarta-feira

    Tempo Temperatura Precipitação Vento Pressão Humidade
    00:00 +8°C° 0 mm 4 m/s 739 mmHg 77%
    01:00 +8°C° 0 mm 4 m/s 739 mmHg 77%
    02:00 +8°C° 0 mm 2 m/s 738 mmHg 79%
    03:00 +8°C° 0.1 mm 3 m/s 738 mmHg 78%
    04:00 +7°C° 0.1 mm 4 m/s 738 mmHg 76%
    05:00 +7°C° 0.1 mm 5 m/s 739 mmHg 74%
    06:00 +6°C° 0.1 mm 5 m/s 739 mmHg 72%
    07:00 +5°C° 0.1 mm 6 m/s 740 mmHg 69%
    08:00 +4°C° 0.1 mm 7 m/s 740 mmHg 66%
    09:00 +5°C° 0 mm 6 m/s 741 mmHg 62%
    10:00 +7°C° 0 mm 6 m/s 741 mmHg 58%
    11:00 +8°C° 0 mm 5 m/s 742 mmHg 53%
    12:00 +8°C° 0 mm 5 m/s 742 mmHg 52%
    13:00 +8°C° 0 mm 4 m/s 743 mmHg 50%
    14:00 +10°C° 0 mm 4 m/s 743 mmHg 49%
    15:00 +8°C° 0 mm 4 m/s 744 mmHg 51%
    16:00 +6°C° 0 mm 5 m/s 745 mmHg 54%
    17:00 +5°C° 0 mm 5 m/s 745 mmHg 56%
    18:00 +3°C° 0 mm 5 m/s 746 mmHg 52%
    19:00 +3°C° 0 mm 6 m/s 747 mmHg 48%
    20:00 +2°C° 0 mm 6 m/s 748 mmHg 44%
    21:00 +2°C° 0 mm 5 m/s 749 mmHg 42%
    22:00 +3°C° 0 mm 5 m/s 749 mmHg 40%
    23:00 +3°C° 0 mm 5 m/s 750 mmHg 38%

    Amanhã, 17 Janeiro, Quinta-feira

    Tempo Temperatura Precipitação Vento Pressão Humidade
    00:00 +4°C° 0 mm 4 m/s 750 mmHg 42%
    01:00 +5°C° 0 mm 4 m/s 751 mmHg 45%
    02:00 +5°C° 0 mm 4 m/s 751 mmHg 48%
    03:00 +5°C° 0 mm 4 m/s 751 mmHg 50%
    04:00 +5°C° 0 mm 4 m/s 751 mmHg 53%
    05:00 +6°C° 0 mm 4 m/s 751 mmHg 55%
    06:00 +7°C° 0 mm 3 m/s 752 mmHg 55%
    07:00 +7°C° 0 mm 3 m/s 752 mmHg 55%
    08:00 +8°C° 0 mm 3 m/s 753 mmHg 54%
    09:00 +10°C° 0 mm 3 m/s 753 mmHg 53%
    10:00 +12°C° 0 mm 2 m/s 753 mmHg 52%
    11:00 +14°C° 0 mm 2 m/s 753 mmHg 51%
    12:00 +14°C° 0 mm 2 m/s 753 mmHg 52%
    13:00 +14°C° 0 mm 2 m/s 753 mmHg 53%
    14:00 +14°C° 0 mm 2 m/s 752 mmHg 54%
    15:00 +13°C° 0 mm 2 m/s 752 mmHg 58%
    16:00 +12°C° 0 mm 2 m/s 753 mmHg 62%
    17:00 +9°C° 0 mm 2 m/s 753 mmHg 67%
    18:00 +9°C° 0 mm 2 m/s 753 mmHg 64%
    19:00 +9°C° 0 mm 2 m/s 753 mmHg 61%
    20:00 +8°C° 0 mm 2 m/s 754 mmHg 59%
    21:00 +9°C° 0 mm 1 m/s 754 mmHg 56%
    22:00 +9°C° 0 mm 1 m/s 754 mmHg 53%
    23:00 +9°C° 0 mm 1 m/s 754 mmHg 51%

    Depois de amanhã, 18 Janeiro, Sexta-feira

    Tempo Temperatura Precipitação Vento Pressão Humidade
    00:00 +8°C° 0 mm 2 m/s 754 mmHg 50%
    01:00 +8°C° 0 mm 2 m/s 754 mmHg 49%
    02:00 +8°C° 0 mm 2 m/s 754 mmHg 49%
    03:00 +8°C° 0 mm 2 m/s 753 mmHg 49%
    04:00 +8°C° 0 mm 2 m/s 753 mmHg 49%
    05:00 +8°C° 0 mm 2 m/s 753 mmHg 49%
    06:00 +8°C° 0 mm 2 m/s 753 mmHg 49%
    07:00 +9°C° 0 mm 1 m/s 754 mmHg 50%
    08:00 +9°C° 0 mm 1 m/s 754 mmHg 51%
    09:00 +11°C° 0 mm 1 m/s 754 mmHg 53%
    10:00 +12°C° 0 mm 1 m/s 754 mmHg 55%
    11:00 +14°C° 0 mm 1 m/s 754 mmHg 57%
    12:00 +14°C° 0 mm 1 m/s 754 mmHg 60%
    13:00 +14°C° 0 mm 1 m/s 753 mmHg 62%
    14:00 +14°C° 0 mm 2 m/s 753 mmHg 64%
    15:00 +13°C° 0 mm 1 m/s 753 mmHg 69%
    16:00 +12°C° 0 mm 1 m/s 753 mmHg 75%
    17:00 +11°C° 0 mm 1 m/s 753 mmHg 80%
    18:00 +10°C° 0 mm 1 m/s 754 mmHg 81%
    19:00 +10°C° 0 mm 1 m/s 754 mmHg 82%
    20:00 +9°C° 0 mm 1 m/s 754 mmHg 84%
    21:00 +9°C° 0 mm 1 m/s 755 mmHg 84%
    22:00 +9°C° 0 mm 1 m/s 755 mmHg 85%
    23:00 +8°C° 0 mm 2 m/s 755 mmHg 85%

    19 Janeiro, Sábado

    Tempo Temperatura Precipitação Vento Pressão Humidade
    00:00 +8°C° 0 mm 2 m/s 755 mmHg 85%
    01:00 +8°C° 0 mm 2 m/s 755 mmHg 85%
    02:00 +8°C° 0 mm 2 m/s 755 mmHg 85%
    03:00 +8°C° 0 mm 3 m/s 755 mmHg 85%
    04:00 +8°C° 0 mm 3 m/s 755 mmHg 84%
    05:00 +8°C° 0 mm 3 m/s 754 mmHg 84%
    06:00 +8°C° 0 mm 3 m/s 755 mmHg 82%
    07:00 +8°C° 0 mm 3 m/s 755 mmHg 81%
    08:00 +8°C° 0 mm 3 m/s 755 mmHg 79%
    09:00 +10°C° 0 mm 3 m/s 755 mmHg 77%
    10:00 +11°C° 0 mm 3 m/s 755 mmHg 75%
    11:00 +12°C° 0 mm 3 m/s 755 mmHg 73%
    12:00 +12°C° 0 mm 3 m/s 755 mmHg 74%
    13:00 +13°C° 0 mm 2 m/s 754 mmHg 75%
    14:00 +13°C° 0 mm 2 m/s 754 mmHg 76%
    15:00 +12°C° 0 mm 2 m/s 753 mmHg 80%
    16:00 +12°C° 0 mm 2 m/s 753 mmHg 83%
    17:00 +12°C° 0 mm 2 m/s 753 mmHg 87%
    18:00 +12°C° 0 mm 2 m/s 754 mmHg 87%
    19:00 +12°C° 0 mm 2 m/s 754 mmHg 88%
    20:00 +10°C° 0 mm 2 m/s 754 mmHg 88%
    21:00 +10°C° 0.1 mm 2 m/s 754 mmHg 89%
    22:00 +10°C° 0.1 mm 2 m/s 755 mmHg 89%
    23:00 +10°C° 0.1 mm 2 m/s 755 mmHg 89%

    20 Janeiro, Domingo

    Tempo Temperatura Precipitação Vento Pressão Humidade
    00:00 +10°C° 0.1 mm 2 m/s 754 mmHg 90%
    01:00 +10°C° 0.1 mm 2 m/s 754 mmHg 91%
    02:00 +10°C° 0.1 mm 2 m/s 754 mmHg 92%
    03:00 +10°C° 0.1 mm 2 m/s 754 mmHg 91%
    04:00 +10°C° 0.1 mm 2 m/s 754 mmHg 91%
    05:00 +10°C° 0.1 mm 2 m/s 753 mmHg 91%
    06:00 +10°C° 0 mm 2 m/s 754 mmHg 90%
    07:00 +10°C° 0 mm 2 m/s 754 mmHg 90%
    08:00 +10°C° 0 mm 2 m/s 754 mmHg 89%
    09:00 +12°C° 0 mm 2 m/s 754 mmHg 86%
    10:00 +12°C° 0 mm 2 m/s 754 mmHg 82%
    11:00 +13°C° 0 mm 2 m/s 754 mmHg 78%
    12:00 +13°C° 0.1 mm 2 m/s 753 mmHg 78%
    13:00 +13°C° 0.1 mm 2 m/s 753 mmHg 78%
    14:00 +13°C° 0.1 mm 2 m/s 753 mmHg 78%
    15:00 +13°C° 0.1 mm 2 m/s 752 mmHg 81%
    16:00 +12°C° 0.1 mm 1 m/s 752 mmHg 84%
    17:00 +12°C° 0.1 mm 1 m/s 752 mmHg 87%
    18:00 +12°C° 0.1 mm 1 m/s 753 mmHg 89%
    19:00 +12°C° 0.1 mm 1 m/s 753 mmHg 91%
    20:00 +11°C° 0.1 mm 1 m/s 753 mmHg 92%
    21:00 +11°C° 0.3 mm 1 m/s 754 mmHg 92%
    22:00 +11°C° 0.3 mm 1 m/s 754 mmHg 93%
    23:00 +11°C° 0.3 mm 1 m/s 754 mmHg 93%

    21 Janeiro, Segunda-feira

    Tempo Temperatura Precipitação Vento Pressão Humidade
    00:00 +10°C° 0 mm 2 m/s 754 mmHg 93%
    01:00 +9°C° 0 mm 2 m/s 753 mmHg 93%
    02:00 +9°C° 0 mm 2 m/s 753 mmHg 93%
    03:00 +9°C° 0 mm 2 m/s 753 mmHg 93%
    04:00 +9°C° 0 mm 2 m/s 753 mmHg 93%
    05:00 +9°C° 0 mm 2 m/s 753 mmHg 93%
    06:00 +9°C° 0.1 mm 2 m/s 753 mmHg 92%
    07:00 +10°C° 0.1 mm 2 m/s 754 mmHg 91%
    08:00 +10°C° 0.1 mm 2 m/s 754 mmHg 90%
    09:00 +12°C° 0.1 mm 2 m/s 754 mmHg 87%
    10:00 +12°C° 0.1 mm 2 m/s 754 mmHg 84%
    11:00 +13°C° 0.1 mm 2 m/s 754 mmHg 81%
    12:00 +13°C° 0 mm 2 m/s 754 mmHg 80%
    13:00 +13°C° 0 mm 2 m/s 753 mmHg 80%
    14:00 +13°C° 0 mm 2 m/s 753 mmHg 79%
    15:00 +13°C° 0 mm 2 m/s 753 mmHg 82%
    16:00 +13°C° 0 mm 1 m/s 753 mmHg 86%
    17:00 +12°C° 0 mm 1 m/s 753 mmHg 89%
    18:00 +12°C° 0 mm 1 m/s 753 mmHg 90%
    19:00 +12°C° 0 mm 1 m/s 754 mmHg 91%
    20:00 +11°C° 0 mm 1 m/s 754 mmHg 92%
    21:00 +11°C° 0.1 mm 1 m/s 754 mmHg 92%
    22:00 +12°C° 0.1 mm 1 m/s 754 mmHg 93%
    23:00 +12°C° 0.1 mm 1 m/s 754 mmHg 93%
    Mostrar mais